Time,TemperatureF,DewpointF,PressureIn,WindDirection,WindDirectionDegrees,WindSpeedMPH,WindSpeedGustMPH,Humidity,HourlyPrecipIn,Conditions,Clouds,dailyrainin,SoftwareType,DateUTC
2013-02-19 00:00:00,44.3,32.5,29.89,SE,139,6.0,7.0,63,0.00,,,0.00,Wunderground v.1.15,2013-02-19 05:00:00,
2013-02-19 00:01:00,44.3,32.5,29.89,SSE,163,6.0,8.0,63,0.00,,,0.00,Wunderground v.1.15,2013-02-19 05:01:00,
2013-02-19 00:02:00,44.3,32.5,29.89,SSE,161,6.0,8.0,63,0.00,,,0.00,Wunderground v.1.15,2013-02-19 05:02:00,
2013-02-19 00:08:00,44.4,32.6,29.89,South,173,6.0,8.0,63,0.00,,,0.00,Wunderground v.1.15,2013-02-19 05:08:00,
2013-02-19 00:15:00,44.7,32.5,29.89,South,182,8.0,13.0,62,0.00,,,0.00,Wunderground v.1.15,2013-02-19 05:15:00,
2013-02-19 00:17:00,44.9,32.3,29.88,SSE,162,8.0,13.0,61,0.00,,,0.00,Wunderground v.1.15,2013-02-19 05:17:00,
2013-02-19 00:23:00,45.0,32.3,29.88,SSE,162,7.0,10.0,61,0.00,,,0.00,Wunderground v.1.15,2013-02-19 05:23:00,
2013-02-19 00:29:00,45.2,32.1,29.89,South,174,7.0,12.0,60,0.00,,,0.00,Wunderground v.1.15,2013-02-19 05:29:00,
2013-02-19 00:35:00,45.4,32.3,29.89,SSE,167,8.0,13.0,60,0.00,,,0.00,Wunderground v.1.15,2013-02-19 05:35:00,
2013-02-19 00:41:00,45.5,32.4,29.88,South,169,7.0,8.0,60,0.00,,,0.00,Wunderground v.1.15,2013-02-19 05:41:00,
2013-02-19 00:47:00,45.7,32.2,29.88,South,182,8.0,15.0,59,0.00,,,0.00,Wunderground v.1.15,2013-02-19 05:47:00,
2013-02-19 00:53:00,45.7,32.2,29.88,South,190,8.0,11.0,59,0.00,,,0.00,Wunderground v.1.15,2013-02-19 05:53:00,
2013-02-19 00:59:00,45.8,32.7,29.87,SW,215,8.0,11.0,60,0.00,,,0.00,Wunderground v.1.15,2013-02-19 05:59:00,
2013-02-19 01:04:00,45.8,32.3,29.87,SSE,158,8.0,19.0,59,0.00,,,0.00,Wunderground v.1.15,2013-02-19 06:04:00,
2013-02-19 01:09:00,46.0,32.5,29.87,South,175,8.0,8.0,59,0.00,,,0.00,Wunderground v.1.15,2013-02-19 06:09:00,
2013-02-19 01:15:00,46.1,32.6,29.87,South,173,9.0,21.0,59,0.00,,,0.00,Wunderground v.1.15,2013-02-19 06:15:00,
2013-02-19 01:20:00,46.3,32.7,29.87,SSW,207,11.0,19.0,59,0.00,,,0.00,Wunderground v.1.15,2013-02-19 06:20:00,
2013-02-19 01:26:00,46.8,32.8,29.87,SW,217,12.0,24.0,58,0.00,,,0.00,Wunderground v.1.15,2013-02-19 06:26:00,
2013-02-19 01:33:00,46.8,33.2,29.87,SSW,205,9.0,19.0,59,0.00,,,0.00,Wunderground v.1.15,2013-02-19 06:33:00,
2013-02-19 01:39:00,46.9,33.3,29.86,South,173,11.0,24.0,59,0.00,,,0.00,Wunderground v.1.15,2013-02-19 06:39:00,
2013-02-19 01:45:00,46.6,33.9,29.86,SW,215,10.0,19.0,61,0.00,,,0.00,Wunderground v.1.15,2013-02-19 06:45:00,
2013-02-19 01:50:00,46.3,35.2,29.86,South,183,13.0,21.0,65,0.00,,,0.00,Wunderground v.1.15,2013-02-19 06:50:00,
2013-02-19 01:56:00,45.6,35.6,29.86,South,181,14.0,21.0,68,0.00,,,0.00,Wunderground v.1.15,2013-02-19 06:56:00,
2013-02-19 02:02:00,44.7,36.6,29.86,South,186,14.0,23.0,73,0.00,,,0.00,Wunderground v.1.15,2013-02-19 07:02:00,
2013-02-19 02:08:00,43.4,37.0,29.85,SSW,192,15.0,23.0,78,0.12,,,0.02,Wunderground v.1.15,2013-02-19 07:08:00,
2013-02-19 02:14:00,42.6,37.5,29.85,South,176,13.0,19.0,82,0.10,,,0.02,Wunderground v.1.15,2013-02-19 07:14:00,
2013-02-19 02:20:00,42.0,37.5,29.84,SSE,149,11.0,19.0,84,0.06,,,0.03,Wunderground v.1.15,2013-02-19 07:20:00,
2013-02-19 02:26:00,41.6,37.1,29.84,SSE,159,11.0,19.0,84,0.09,,,0.04,Wunderground v.1.15,2013-02-19 07:26:00,
2013-02-19 02:31:00,41.5,37.3,29.83,SSE,163,10.0,19.0,85,0.08,,,0.04,Wunderground v.1.15,2013-02-19 07:31:00,
2013-02-19 02:37:00,41.4,37.5,29.83,SSE,165,9.0,19.0,86,0.05,,,0.04,Wunderground v.1.15,2013-02-19 07:37:00,
2013-02-19 02:43:00,41.5,37.6,29.83,SE,142,9.0,19.0,86,0.00,,,0.04,Wunderground v.1.15,2013-02-19 07:43:00,
2013-02-19 02:49:00,41.5,37.3,29.82,SSE,150,9.0,19.0,85,0.00,,,0.04,Wunderground v.1.15,2013-02-19 07:49:00,
2013-02-19 02:54:00,41.4,37.5,29.82,SW,227,10.0,19.0,86,0.00,,,0.04,Wunderground v.1.15,2013-02-19 07:54:00,
2013-02-19 03:00:00,41.1,37.2,29.81,South,186,10.0,19.0,86,0.00,,,0.05,Wunderground v.1.15,2013-02-19 08:00:00,
2013-02-19 03:06:00,40.8,37.2,29.81,SSE,150,9.0,19.0,87,0.00,,,0.05,Wunderground v.1.15,2013-02-19 08:06:00,
2013-02-19 03:12:00,40.6,37.0,29.81,SSW,209,10.0,19.0,87,0.05,,,0.06,Wunderground v.1.15,2013-02-19 08:12:00,
2013-02-19 03:18:00,40.3,37.0,29.81,SSE,157,11.0,25.0,88,0.05,,,0.06,Wunderground v.1.15,2013-02-19 08:18:00,
2013-02-19 03:23:00,40.1,36.8,29.80,South,181,12.0,19.0,88,0.04,,,0.06,Wunderground v.1.15,2013-02-19 08:23:00,
2013-02-19 03:30:00,39.8,36.8,29.80,South,174,13.0,13.0,89,0.00,,,0.06,Wunderground v.1.15,2013-02-19 08:30:00,
2013-02-19 03:35:00,39.6,36.6,29.79,South,177,10.0,19.0,89,0.00,,,0.07,Wunderground v.1.15,2013-02-19 08:35:00,
2013-02-19 03:40:00,39.5,36.8,29.78,SSW,200,9.0,19.0,90,0.00,,,0.07,Wunderground v.1.15,2013-02-19 08:40:00,
2013-02-19 03:45:00,39.4,36.7,29.78,South,185,11.0,24.0,90,0.00,,,0.07,Wunderground v.1.15,2013-02-19 08:45:00,
2013-02-19 03:50:00,39.3,36.6,29.77,South,171,10.0,19.0,90,0.00,,,0.07,Wunderground v.1.15,2013-02-19 08:50:00,
2013-02-19 03:56:00,39.3,36.6,29.76,SSE,156,9.0,19.0,90,0.00,,,0.07,Wunderground v.1.15,2013-02-19 08:56:00,
2013-02-19 04:02:00,39.4,36.7,29.76,South,181,9.0,19.0,90,0.00,,,0.07,Wunderground v.1.15,2013-02-19 09:02:00,
2013-02-19 04:08:00,39.5,36.5,29.76,South,181,10.0,19.0,89,0.00,,,0.07,Wunderground v.1.15,2013-02-19 09:08:00,
2013-02-19 04:14:00,39.4,36.4,29.76,SSE,167,9.0,19.0,89,0.00,,,0.07,Wunderground v.1.15,2013-02-19 09:14:00,
2013-02-19 04:20:00,39.4,36.4,29.75,South,171,8.0,19.0,89,0.00,,,0.07,Wunderground v.1.15,2013-02-19 09:20:00,
2013-02-19 04:25:00,39.6,36.6,29.74,SSE,163,10.0,19.0,89,0.00,,,0.07,Wunderground v.1.15,2013-02-19 09:25:00,
2013-02-19 04:30:00,39.8,36.5,29.74,South,184,12.0,19.0,88,0.00,,,0.07,Wunderground v.1.15,2013-02-19 09:30:00,
2013-02-19 04:36:00,39.8,36.5,29.75,SSE,159,11.0,19.0,88,0.00,,,0.07,Wunderground v.1.15,2013-02-19 09:36:00,
2013-02-19 04:41:00,39.7,36.7,29.74,South,175,10.0,19.0,89,0.00,,,0.07,Wunderground v.1.15,2013-02-19 09:41:00,
2013-02-19 04:47:00,39.6,36.6,29.74,ESE,111,10.0,19.0,89,0.00,,,0.08,Wunderground v.1.15,2013-02-19 09:47:00,
2013-02-19 04:53:00,39.3,36.3,29.74,SSW,203,11.0,19.0,89,0.00,,,0.08,Wunderground v.1.15,2013-02-19 09:53:00,
2013-02-19 04:59:00,39.2,36.5,29.74,SE,143,12.0,19.0,90,0.00,,,0.08,Wunderground v.1.15,2013-02-19 09:59:00,
2013-02-19 05:04:00,39.1,36.4,29.74,South,169,12.0,19.0,90,0.00,,,0.08,Wunderground v.1.15,2013-02-19 10:04:00,
2013-02-19 05:10:00,39.0,36.3,29.74,South,182,12.0,12.0,90,0.00,,,0.08,Wunderground v.1.15,2013-02-19 10:10:00,
2013-02-19 05:16:00,38.8,36.4,29.73,SSE,153,11.0,19.0,91,0.00,,,0.09,Wunderground v.1.15,2013-02-19 10:16:00,
2013-02-19 05:22:00,38.7,36.3,29.73,SSE,148,11.0,19.0,91,0.00,,,0.09,Wunderground v.1.15,2013-02-19 10:22:00,
2013-02-19 05:27:00,38.6,36.2,29.73,SSW,207,10.0,21.0,91,0.00,,,0.09,Wunderground v.1.15,2013-02-19 10:27:00,
2013-02-19 05:33:00,38.5,36.1,29.73,SSE,157,9.0,19.0,91,0.00,,,0.09,Wunderground v.1.15,2013-02-19 10:33:00,
2013-02-19 05:39:00,38.6,36.5,29.73,SSW,192,11.0,23.0,92,0.00,,,0.09,Wunderground v.1.15,2013-02-19 10:39:00,
2013-02-19 05:45:00,38.6,36.5,29.72,SSE,165,13.0,21.0,92,0.00,,,0.09,Wunderground v.1.15,2013-02-19 10:45:00,
2013-02-19 05:50:00,38.6,36.5,29.72,South,176,13.0,13.0,92,0.00,,,0.09,Wunderground v.1.15,2013-02-19 10:50:00,
2013-02-19 05:56:00,38.6,36.5,29.72,SSE,162,11.0,19.0,92,0.00,,,0.09,Wunderground v.1.15,2013-02-19 10:56:00,
2013-02-19 06:01:00,38.6,36.5,29.72,SSE,159,11.0,11.0,92,0.00,,,0.09,Wunderground v.1.15,2013-02-19 11:01:00,
2013-02-19 06:07:00,38.6,36.8,29.71,South,188,10.0,19.0,93,0.00,,,0.09,Wunderground v.1.15,2013-02-19 11:07:00,
2013-02-19 06:13:00,38.6,36.8,29.71,SSE,166,10.0,12.0,93,0.00,,,0.10,Wunderground v.1.15,2013-02-19 11:13:00,
2013-02-19 06:18:00,38.7,36.9,29.70,SSE,160,10.0,17.0,93,0.00,,,0.10,Wunderground v.1.15,2013-02-19 11:18:00,
2013-02-19 06:24:00,38.9,37.0,29.71,South,175,11.0,19.0,93,0.00,,,0.10,Wunderground v.1.15,2013-02-19 11:24:00,
2013-02-19 06:30:00,39.0,37.1,29.71,SSE,168,11.0,11.0,93,0.00,,,0.10,Wunderground v.1.15,2013-02-19 11:30:00,
2013-02-19 06:36:00,39.1,37.2,29.70,SSE,167,11.0,18.0,93,0.00,,,0.10,Wunderground v.1.15,2013-02-19 11:36:00,
2013-02-19 06:42:00,39.3,37.4,29.70,SW,217,11.0,11.0,93,0.00,,,0.10,Wunderground v.1.15,2013-02-19 11:42:00,
2013-02-19 06:47:00,39.5,37.4,29.70,SSW,211,11.0,13.0,92,0.00,,,0.10,Wunderground v.1.15,2013-02-19 11:47:00,
2013-02-19 06:53:00,39.6,37.5,29.70,SW,225,11.0,12.0,92,0.00,,,0.10,Wunderground v.1.15,2013-02-19 11:53:00,
2013-02-19 06:59:00,39.7,37.6,29.70,SSE,160,11.0,16.0,92,0.00,,,0.10,Wunderground v.1.15,2013-02-19 11:59:00,
2013-02-19 07:05:00,39.7,37.6,29.70,South,189,12.0,24.0,92,0.00,,,0.10,Wunderground v.1.15,2013-02-19 12:05:00,
2013-02-19 07:11:00,39.8,37.7,29.70,SSW,192,11.0,24.0,92,0.00,,,0.10,Wunderground v.1.15,2013-02-19 12:11:00,
2013-02-19 07:16:00,40.0,37.9,29.70,South,188,11.0,24.0,92,0.00,,,0.10,Wunderground v.1.15,2013-02-19 12:16:00,
2013-02-19 07:22:00,40.1,38.0,29.70,South,183,12.0,24.0,92,0.00,,,0.10,Wunderground v.1.15,2013-02-19 12:22:00,
2013-02-19 07:28:00,40.2,37.8,29.70,SW,221,11.0,24.0,91,0.00,,,0.10,Wunderground v.1.15,2013-02-19 12:28:00,
2013-02-19 07:34:00,40.2,37.8,29.70,SSE,161,10.0,24.0,91,0.00,,,0.10,Wunderground v.1.15,2013-02-19 12:34:00,
2013-02-19 07:40:00,40.3,37.9,29.70,SSW,207,10.0,24.0,91,0.00,,,0.10,Wunderground v.1.15,2013-02-19 12:40:00,
2013-02-19 07:45:00,40.4,38.0,29.70,South,180,12.0,24.0,91,0.00,,,0.10,Wunderground v.1.15,2013-02-19 12:45:00,
2013-02-19 07:51:00,40.4,38.0,29.70,SSE,152,11.0,24.0,91,0.00,,,0.10,Wunderground v.1.15,2013-02-19 12:51:00,
2013-02-19 07:57:00,40.5,38.1,29.71,South,181,10.0,24.0,91,0.00,,,0.10,Wunderground v.1.15,2013-02-19 12:57:00,
2013-02-19 08:03:00,40.5,38.1,29.71,South,187,9.0,24.0,91,0.00,,,0.10,Wunderground v.1.15,2013-02-19 13:03:00,
2013-02-19 08:09:00,40.4,38.3,29.71,SSW,211,7.0,24.0,92,0.00,,,0.10,Wunderground v.1.15,2013-02-19 13:09:00,
2013-02-19 08:14:00,40.3,38.2,29.71,SSW,209,8.0,24.0,92,0.00,,,0.10,Wunderground v.1.15,2013-02-19 13:14:00,
2013-02-19 08:20:00,40.3,38.2,29.72,WSW,257,10.0,10.0,92,0.00,,,0.11,Wunderground v.1.15,2013-02-19 13:20:00,
2013-02-19 08:26:00,39.5,37.1,29.73,West,273,12.0,24.0,91,0.00,,,0.11,Wunderground v.1.15,2013-02-19 13:26:00,
2013-02-19 08:32:00,38.8,36.1,29.73,WSW,238,12.0,24.0,90,0.04,,,0.12,Wunderground v.1.15,2013-02-19 13:32:00,
2013-02-19 08:39:00,38.3,35.6,29.74,SW,226,10.0,24.0,90,0.04,,,0.12,Wunderground v.1.15,2013-02-19 13:39:00,
2013-02-19 08:45:00,37.8,35.4,29.74,SSW,204,7.0,24.0,91,0.04,,,0.12,Wunderground v.1.15,2013-02-19 13:45:00,
2013-02-19 08:51:00,36.9,34.2,29.74,NW,315,9.0,24.0,90,0.00,,,0.12,Wunderground v.1.15,2013-02-19 13:51:00,
2013-02-19 08:56:00,35.9,33.5,29.74,WSW,241,10.0,24.0,91,0.00,,,0.12,Wunderground v.1.15,2013-02-19 13:56:00,
2013-02-19 09:02:00,35.3,32.9,29.74,SSW,213,8.0,9.0,91,0.00,,,0.12,Wunderground v.1.15,2013-02-19 14:02:00,
2013-02-19 09:08:00,34.7,32.6,29.75,WSW,248,7.0,12.0,92,0.00,,,0.12,Wunderground v.1.15,2013-02-19 14:08:00,
2013-02-19 09:14:00,34.1,32.0,29.75,West,260,8.0,11.0,92,0.00,,,0.13,Wunderground v.1.15,2013-02-19 14:14:00,
2013-02-19 09:19:00,33.7,31.6,29.75,West,267,7.0,11.0,92,0.00,,,0.13,Wunderground v.1.15,2013-02-19 14:19:00,
2013-02-19 09:25:00,33.3,31.5,29.75,SW,230,7.0,12.0,93,0.00,,,0.13,Wunderground v.1.15,2013-02-19 14:25:00,
2013-02-19 09:31:00,33.2,31.4,29.75,WNW,288,8.0,9.0,93,0.00,,,0.13,Wunderground v.1.15,2013-02-19 14:31:00,
2013-02-19 09:37:00,33.1,31.3,29.75,West,264,8.0,9.0,93,0.00,,,0.14,Wunderground v.1.15,2013-02-19 14:37:00,
2013-02-19 09:43:00,33.0,31.2,29.75,West,267,9.0,17.0,93,0.00,,,0.14,Wunderground v.1.15,2013-02-19 14:43:00,
2013-02-19 09:49:00,33.0,31.2,29.76,WSW,247,9.0,17.0,93,0.00,,,0.14,Wunderground v.1.15,2013-02-19 14:49:00,
2013-02-19 09:55:00,32.9,31.1,29.76,West,267,7.0,14.0,93,0.00,,,0.14,Wunderground v.1.15,2013-02-19 14:55:00,
2013-02-19 10:01:00,32.9,31.1,29.76,West,262,7.0,9.0,93,0.00,,,0.14,Wunderground v.1.15,2013-02-19 15:01:00,
2013-02-19 10:07:00,32.7,30.9,29.76,SSW,200,7.0,22.0,93,0.00,,,0.14,Wunderground v.1.15,2013-02-19 15:07:00,
2013-02-19 10:12:00,32.6,30.8,29.76,WSW,238,8.0,22.0,93,0.00,,,0.14,Wunderground v.1.15,2013-02-19 15:12:00,
2013-02-19 10:18:00,32.4,30.6,29.77,WSW,241,9.0,22.0,93,0.00,,,0.14,Wunderground v.1.15,2013-02-19 15:18:00,
2013-02-19 10:24:00,31.8,30.0,29.77,SW,219,11.0,22.0,93,0.00,,,0.14,Wunderground v.1.15,2013-02-19 15:24:00,
2013-02-19 10:30:00,31.6,29.5,29.78,SW,215,11.0,22.0,92,0.00,,,0.14,Wunderground v.1.15,2013-02-19 15:30:00,
2013-02-19 10:36:00,31.5,29.4,29.78,WSW,243,11.0,22.0,92,0.00,,,0.14,Wunderground v.1.15,2013-02-19 15:36:00,
2013-02-19 10:42:00,31.3,29.0,29.78,SW,232,10.0,22.0,91,0.00,,,0.14,Wunderground v.1.15,2013-02-19 15:42:00,
2013-02-19 10:48:00,31.0,28.4,29.78,SW,233,9.0,22.0,90,0.00,,,0.14,Wunderground v.1.15,2013-02-19 15:48:00,
2013-02-19 10:53:00,30.8,27.9,29.78,SW,234,9.0,22.0,89,0.00,,,0.14,Wunderground v.1.15,2013-02-19 15:53:00,
2013-02-19 10:59:00,30.5,27.6,29.79,SW,234,11.0,22.0,89,0.00,,,0.14,Wunderground v.1.15,2013-02-19 15:59:00,
2013-02-19 11:05:00,30.4,27.5,29.79,SW,221,11.0,22.0,89,0.00,,,0.14,Wunderground v.1.15,2013-02-19 16:05:00,
2013-02-19 11:11:00,30.4,27.5,29.79,West,271,10.0,11.0,89,0.00,,,0.14,Wunderground v.1.15,2013-02-19 16:11:00,
2013-02-19 11:17:00,30.4,27.8,29.79,SW,217,10.0,22.0,90,0.00,,,0.14,Wunderground v.1.15,2013-02-19 16:17:00,
2013-02-19 11:22:00,30.4,27.5,29.79,West,263,10.0,22.0,89,0.00,,,0.14,Wunderground v.1.15,2013-02-19 16:22:00,
2013-02-19 11:28:00,30.2,27.3,29.79,West,271,12.0,22.0,89,0.00,,,0.14,Wunderground v.1.15,2013-02-19 16:28:00,
2013-02-19 11:34:00,29.6,26.8,29.80,West,276,13.0,22.0,89,0.00,,,0.14,Wunderground v.1.15,2013-02-19 16:34:00,
2013-02-19 11:40:00,29.1,26.3,29.80,SW,232,12.0,22.0,89,0.00,,,0.14,Wunderground v.1.15,2013-02-19 16:40:00,
2013-02-19 11:45:00,28.8,26.0,29.80,WSW,245,11.0,22.0,89,0.00,,,0.14,Wunderground v.1.15,2013-02-19 16:45:00,
2013-02-19 11:51:00,28.7,25.6,29.81,West,265,11.0,22.0,88,0.00,,,0.14,Wunderground v.1.15,2013-02-19 16:51:00,
2013-02-19 11:57:00,28.7,25.0,29.81,SW,235,13.0,25.0,86,0.00,,,0.14,Wunderground v.1.15,2013-02-19 16:57:00,
2013-02-19 12:02:00,28.6,24.7,29.81,SW,216,14.0,16.0,85,0.00,,,0.14,Wunderground v.1.15,2013-02-19 17:02:00,
2013-02-19 12:08:00,28.5,24.3,29.81,SW,232,13.0,22.0,84,0.00,,,0.14,Wunderground v.1.15,2013-02-19 17:08:00,
2013-02-19 12:13:00,28.6,24.7,29.81,WSW,248,12.0,14.0,85,0.00,,,0.14,Wunderground v.1.15,2013-02-19 17:13:00,
2013-02-19 12:19:00,28.6,24.4,29.81,SW,227,11.0,21.0,84,0.00,,,0.14,Wunderground v.1.15,2013-02-19 17:19:00,
2013-02-19 12:25:00,28.7,24.2,29.82,WSW,240,10.0,14.0,83,0.00,,,0.14,Wunderground v.1.15,2013-02-19 17:25:00,
2013-02-19 12:31:00,28.6,24.4,29.82,SW,215,9.0,11.0,84,0.00,,,0.14,Wunderground v.1.15,2013-02-19 17:31:00,
2013-02-19 12:37:00,28.1,23.3,29.82,West,275,11.0,23.0,82,0.00,,,0.14,Wunderground v.1.15,2013-02-19 17:37:00,
2013-02-19 12:43:00,27.8,22.4,29.82,West,281,12.0,16.0,80,0.00,,,0.14,Wunderground v.1.15,2013-02-19 17:43:00,
2013-02-19 12:49:00,27.9,22.2,29.82,WNW,288,12.0,19.0,79,0.00,,,0.14,Wunderground v.1.15,2013-02-19 17:49:00,
2013-02-19 12:54:00,27.9,21.9,29.82,WSW,252,15.0,20.0,78,0.00,,,0.14,Wunderground v.1.15,2013-02-19 17:54:00,
2013-02-19 13:00:00,27.5,21.8,29.82,WSW,239,14.0,14.0,79,0.00,,,0.14,Wunderground v.1.15,2013-02-19 18:00:00,
2013-02-19 13:06:00,27.4,21.7,29.82,SSW,206,13.0,27.0,79,0.00,,,0.14,Wunderground v.1.15,2013-02-19 18:06:00,
2013-02-19 13:12:00,27.4,22.0,29.82,SSW,209,11.0,27.0,80,0.00,,,0.14,Wunderground v.1.15,2013-02-19 18:12:00,
2013-02-19 13:18:00,27.5,22.4,29.81,SW,215,8.0,27.0,81,0.00,,,0.14,Wunderground v.1.15,2013-02-19 18:18:00,
2013-02-19 13:24:00,27.5,22.4,29.82,WSW,255,8.0,27.0,81,0.00,,,0.14,Wunderground v.1.15,2013-02-19 18:24:00,
2013-02-19 13:30:00,27.5,22.4,29.81,WSW,250,10.0,27.0,81,0.00,,,0.14,Wunderground v.1.15,2013-02-19 18:30:00,
2013-02-19 13:35:00,27.5,22.4,29.81,South,174,12.0,27.0,81,0.00,,,0.14,Wunderground v.1.15,2013-02-19 18:35:00,
2013-02-19 13:41:00,27.5,22.4,29.81,SW,229,11.0,27.0,81,0.00,,,0.14,Wunderground v.1.15,2013-02-19 18:41:00,
2013-02-19 13:47:00,27.5,22.4,29.81,SW,231,11.0,27.0,81,0.00,,,0.14,Wunderground v.1.15,2013-02-19 18:47:00,
2013-02-19 13:52:00,27.5,22.4,29.81,SW,225,11.0,27.0,81,0.00,,,0.14,Wunderground v.1.15,2013-02-19 18:52:00,
2013-02-19 13:58:00,27.6,22.5,29.81,SW,229,11.0,27.0,81,0.00,,,0.14,Wunderground v.1.15,2013-02-19 18:58:00,
2013-02-19 14:04:00,27.6,22.5,29.81,SW,236,12.0,27.0,81,0.00,,,0.14,Wunderground v.1.15,2013-02-19 19:04:00,
2013-02-19 14:10:00,27.5,22.7,29.81,SSW,195,11.0,27.0,82,0.00,,,0.14,Wunderground v.1.15,2013-02-19 19:10:00,
2013-02-19 14:16:00,27.5,23.0,29.81,SW,226,11.0,27.0,83,0.00,,,0.14,Wunderground v.1.15,2013-02-19 19:16:00,
2013-02-19 14:22:00,27.5,23.0,29.81,SSW,209,11.0,27.0,83,0.00,,,0.14,Wunderground v.1.15,2013-02-19 19:22:00,
2013-02-19 14:28:00,27.4,23.2,29.81,SW,232,11.0,27.0,84,0.00,,,0.14,Wunderground v.1.15,2013-02-19 19:28:00,
2013-02-19 14:33:00,27.3,23.1,29.82,West,267,10.0,27.0,84,0.00,,,0.14,Wunderground v.1.15,2013-02-19 19:33:00,
2013-02-19 14:39:00,27.0,23.1,29.83,SW,221,10.0,27.0,85,0.00,,,0.14,Wunderground v.1.15,2013-02-19 19:39:00,
2013-02-19 14:45:00,26.6,22.4,29.83,SW,234,13.0,27.0,84,0.00,,,0.14,Wunderground v.1.15,2013-02-19 19:45:00,
2013-02-19 14:51:00,26.5,22.3,29.83,WSW,244,12.0,13.0,84,0.00,,,0.14,Wunderground v.1.15,2013-02-19 19:51:00,
2013-02-19 14:56:00,26.4,21.9,29.83,WSW,247,11.0,27.0,83,0.00,,,0.14,Wunderground v.1.15,2013-02-19 19:56:00,
2013-02-19 15:01:00,26.4,21.7,29.84,SW,231,10.0,13.0,82,0.00,,,0.14,Wunderground v.1.15,2013-02-19 20:01:00,
2013-02-19 15:07:00,26.1,20.5,29.84,WSW,253,11.0,18.0,79,0.00,,,0.14,Wunderground v.1.15,2013-02-19 20:07:00,
2013-02-19 15:12:00,26.0,20.1,29.84,WSW,246,14.0,18.0,78,0.00,,,0.14,Wunderground v.1.15,2013-02-19 20:12:00,
2013-02-19 15:18:00,25.9,20.0,29.85,SW,227,13.0,19.0,78,0.00,,,0.14,Wunderground v.1.15,2013-02-19 20:18:00,
2013-02-19 15:24:00,25.8,19.6,29.85,SW,216,13.0,26.0,77,0.00,,,0.14,Wunderground v.1.15,2013-02-19 20:24:00,
2013-02-19 15:30:00,25.8,19.6,29.85,WSW,243,13.0,13.0,77,0.00,,,0.14,Wunderground v.1.15,2013-02-19 20:30:00,
2013-02-19 15:36:00,25.8,19.9,29.85,SW,228,10.0,13.0,78,0.00,,,0.14,Wunderground v.1.15,2013-02-19 20:36:00,
2013-02-19 15:41:00,25.7,20.1,29.85,WSW,246,10.0,12.0,79,0.00,,,0.14,Wunderground v.1.15,2013-02-19 20:41:00,
2013-02-19 15:47:00,25.6,20.3,29.86,SW,225,11.0,13.0,80,0.00,,,0.14,Wunderground v.1.15,2013-02-19 20:47:00,
2013-02-19 15:53:00,25.5,20.5,29.86,SW,221,9.0,17.0,81,0.00,,,0.14,Wunderground v.1.15,2013-02-19 20:53:00,
2013-02-19 15:59:00,25.4,20.1,29.86,SW,227,14.0,20.0,80,0.00,,,0.14,Wunderground v.1.15,2013-02-19 20:59:00,
2013-02-19 16:04:00,25.2,20.2,29.87,SSW,206,14.0,29.0,81,0.00,,,0.14,Wunderground v.1.15,2013-02-19 21:04:00,
2013-02-19 16:10:00,25.1,20.4,29.87,WSW,250,10.0,29.0,82,0.00,,,0.14,Wunderground v.1.15,2013-02-19 21:10:00,
2013-02-19 16:16:00,24.8,20.1,29.88,WSW,248,12.0,29.0,82,0.00,,,0.14,Wunderground v.1.15,2013-02-19 21:16:00,
2013-02-19 16:21:00,24.6,19.9,29.88,WSW,250,14.0,29.0,82,0.00,,,0.14,Wunderground v.1.15,2013-02-19 21:21:00,
2013-02-19 16:27:00,24.4,20.0,29.88,West,265,12.0,29.0,83,0.00,,,0.14,Wunderground v.1.15,2013-02-19 21:27:00,
2013-02-19 16:33:00,24.2,19.2,29.89,SW,219,13.0,29.0,81,0.00,,,0.14,Wunderground v.1.15,2013-02-19 21:33:00,
2013-02-19 16:38:00,24.1,19.1,29.89,SW,236,15.0,29.0,81,0.00,,,0.14,Wunderground v.1.15,2013-02-19 21:38:00,
2013-02-19 16:44:00,24.0,19.0,29.89,SW,236,13.0,29.0,81,0.00,,,0.14,Wunderground v.1.15,2013-02-19 21:44:00,
2013-02-19 16:49:00,23.8,19.1,29.89,West,269,12.0,12.0,82,0.00,,,0.14,Wunderground v.1.15,2013-02-19 21:49:00,
2013-02-19 16:55:00,23.6,19.2,29.90,West,269,13.0,29.0,83,0.00,,,0.14,Wunderground v.1.15,2013-02-19 21:55:00,
2013-02-19 17:01:00,23.4,19.0,29.90,West,265,15.0,29.0,83,0.00,,,0.14,Wunderground v.1.15,2013-02-19 22:01:00,
2013-02-19 17:06:00,23.3,18.9,29.90,WSW,258,14.0,29.0,83,0.00,,,0.14,Wunderground v.1.15,2013-02-19 22:06:00,
2013-02-19 17:12:00,23.3,19.2,29.91,South,178,11.0,29.0,84,0.00,,,0.14,Wunderground v.1.15,2013-02-19 22:12:00,
2013-02-19 17:18:00,23.2,19.1,29.92,SW,222,10.0,29.0,84,0.00,,,0.14,Wunderground v.1.15,2013-02-19 22:18:00,
2013-02-19 17:24:00,23.3,18.6,29.92,SW,219,10.0,29.0,82,0.00,,,0.14,Wunderground v.1.15,2013-02-19 22:24:00,
2013-02-19 17:29:00,23.5,17.6,29.93,SW,229,14.0,14.0,78,0.00,,,0.14,Wunderground v.1.15,2013-02-19 22:29:00,
2013-02-19 17:34:00,23.4,17.6,29.92,SW,232,15.0,29.0,78,0.00,,,0.14,Wunderground v.1.15,2013-02-19 22:34:00,
2013-02-19 17:40:00,23.3,18.0,29.93,NW,306,13.0,29.0,80,0.00,,,0.14,Wunderground v.1.15,2013-02-19 22:40:00,
2013-02-19 17:46:00,23.1,18.7,29.93,West,264,12.0,29.0,83,0.00,,,0.14,Wunderground v.1.15,2013-02-19 22:46:00,
2013-02-19 17:52:00,22.8,19.0,29.93,WNW,283,11.0,29.0,85,0.00,,,0.14,Wunderground v.1.15,2013-02-19 22:52:00,
2013-02-19 17:58:00,22.5,19.2,29.94,West,267,11.0,29.0,87,0.00,,,0.14,Wunderground v.1.15,2013-02-19 22:58:00,
2013-02-19 18:04:00,22.3,19.3,29.94,SW,229,9.0,11.0,88,0.00,,,0.14,Wunderground v.1.15,2013-02-19 23:04:00,
2013-02-19 18:10:00,22.2,19.5,29.95,West,263,9.0,11.0,89,0.00,,,0.14,Wunderground v.1.15,2013-02-19 23:10:00,
2013-02-19 18:15:00,22.1,19.4,29.95,WSW,251,9.0,14.0,89,0.00,,,0.14,Wunderground v.1.15,2013-02-19 23:15:00,
2013-02-19 18:21:00,22.2,19.7,29.95,West,269,10.0,10.0,90,0.00,,,0.14,Wunderground v.1.15,2013-02-19 23:21:00,
2013-02-19 18:27:00,22.1,19.6,29.95,WSW,246,11.0,16.0,90,0.00,,,0.14,Wunderground v.1.15,2013-02-19 23:27:00,
2013-02-19 18:33:00,22.1,19.6,29.95,WSW,251,11.0,17.0,90,0.00,,,0.14,Wunderground v.1.15,2013-02-19 23:33:00,
2013-02-19 18:39:00,22.0,19.5,29.96,WSW,255,10.0,12.0,90,0.00,,,0.14,Wunderground v.1.15,2013-02-19 23:39:00,
2013-02-19 18:45:00,21.9,19.4,29.96,West,267,11.0,16.0,90,0.00,,,0.14,Wunderground v.1.15,2013-02-19 23:45:00,
2013-02-19 18:51:00,21.8,19.6,29.97,SW,234,10.0,10.0,91,0.00,,,0.14,Wunderground v.1.15,2013-02-19 23:51:00,
2013-02-19 18:56:00,21.6,19.1,29.97,SW,230,10.0,19.0,90,0.00,,,0.14,Wunderground v.1.15,2013-02-19 23:56:00,
2013-02-19 19:02:00,21.1,18.6,29.98,SSW,199,12.0,29.0,90,0.00,,,0.14,Wunderground v.1.15,2013-02-20 00:02:00,
2013-02-19 19:08:00,20.9,18.7,29.98,West,263,9.0,29.0,91,0.00,,,0.14,Wunderground v.1.15,2013-02-20 00:08:00,
2013-02-19 19:14:00,20.7,18.5,29.98,SSW,193,8.0,29.0,91,0.00,,,0.14,Wunderground v.1.15,2013-02-20 00:14:00,
2013-02-19 19:20:00,20.6,18.4,29.99,SW,227,10.0,29.0,91,0.00,,,0.14,Wunderground v.1.15,2013-02-20 00:20:00,
2013-02-19 19:26:00,20.4,18.2,29.99,WSW,242,10.0,29.0,91,0.00,,,0.14,Wunderground v.1.15,2013-02-20 00:26:00,
2013-02-19 19:32:00,20.0,17.5,30.00,SW,236,12.0,29.0,90,0.00,,,0.14,Wunderground v.1.15,2013-02-20 00:32:00,
2013-02-19 19:37:00,19.7,16.5,30.00,SW,228,12.0,29.0,87,0.00,,,0.14,Wunderground v.1.15,2013-02-20 00:37:00,
2013-02-19 19:43:00,19.6,15.6,30.00,West,274,12.0,29.0,84,0.00,,,0.14,Wunderground v.1.15,2013-02-20 00:43:00,
2013-02-19 19:49:00,19.5,14.9,30.00,West,264,13.0,13.0,82,0.00,,,0.14,Wunderground v.1.15,2013-02-20 00:49:00,
2013-02-19 19:54:00,19.5,14.3,30.01,WSW,254,14.0,29.0,80,0.00,,,0.14,Wunderground v.1.15,2013-02-20 00:54:00,
2013-02-19 20:00:00,19.5,13.8,30.01,West,273,14.0,29.0,78,0.00,,,0.14,Wunderground v.1.15,2013-02-20 01:00:00,
2013-02-19 20:06:00,19.5,13.8,30.01,SSW,192,11.0,29.0,78,0.00,,,0.14,Wunderground v.1.15,2013-02-20 01:06:00,
2013-02-19 20:11:00,19.5,13.8,30.01,SW,223,10.0,29.0,78,0.00,,,0.14,Wunderground v.1.15,2013-02-20 01:11:00,
2013-02-19 20:17:00,19.5,13.5,30.01,SW,225,10.0,29.0,77,0.00,,,0.14,Wunderground v.1.15,2013-02-20 01:17:00,
2013-02-19 20:23:00,19.4,13.1,30.01,SW,229,10.0,29.0,76,0.00,,,0.14,Wunderground v.1.15,2013-02-20 01:23:00,
2013-02-19 20:28:00,19.1,12.8,30.02,SW,230,13.0,13.0,76,0.00,,,0.14,Wunderground v.1.15,2013-02-20 01:28:00,
2013-02-19 20:34:00,19.0,12.7,30.02,WSW,242,14.0,29.0,76,0.00,,,0.14,Wunderground v.1.15,2013-02-20 01:34:00,
2013-02-19 20:39:00,19.0,13.0,30.02,WSW,254,12.0,29.0,77,0.00,,,0.14,Wunderground v.1.15,2013-02-20 01:39:00,
2013-02-19 20:44:00,18.9,12.9,30.02,West,268,11.0,29.0,77,0.00,,,0.14,Wunderground v.1.15,2013-02-20 01:44:00,
2013-02-19 20:49:00,18.8,13.1,30.02,SW,225,12.0,29.0,78,0.00,,,0.14,Wunderground v.1.15,2013-02-20 01:49:00,
2013-02-19 20:55:00,18.6,13.2,30.03,West,261,11.0,29.0,79,0.00,,,0.14,Wunderground v.1.15,2013-02-20 01:55:00,
2013-02-19 21:00:00,18.3,13.7,30.02,West,265,10.0,13.0,82,0.00,,,0.14,Wunderground v.1.15,2013-02-20 02:00:00,
2013-02-19 21:06:00,18.2,13.6,30.02,West,259,9.0,14.0,82,0.00,,,0.14,Wunderground v.1.15,2013-02-20 02:06:00,
2013-02-19 21:11:00,18.2,13.3,30.02,West,267,11.0,25.0,81,0.00,,,0.14,Wunderground v.1.15,2013-02-20 02:11:00,
2013-02-19 21:16:00,18.4,13.3,30.02,WSW,246,12.0,25.0,80,0.00,,,0.14,Wunderground v.1.15,2013-02-20 02:16:00,
2013-02-19 21:21:00,18.4,13.0,30.02,WSW,246,12.0,14.0,79,0.00,,,0.14,Wunderground v.1.15,2013-02-20 02:21:00,
2013-02-19 21:27:00,18.4,13.3,30.03,WNW,285,11.0,14.0,80,0.00,,,0.14,Wunderground v.1.15,2013-02-20 02:27:00,
2013-02-19 21:33:00,18.2,13.3,30.03,WSW,257,10.0,16.0,81,0.00,,,0.14,Wunderground v.1.15,2013-02-20 02:33:00,
2013-02-19 21:38:00,18.1,13.5,30.03,West,273,11.0,12.0,82,0.00,,,0.14,Wunderground v.1.15,2013-02-20 02:38:00,
2013-02-19 21:44:00,18.1,13.5,30.03,SW,235,11.0,14.0,82,0.00,,,0.14,Wunderground v.1.15,2013-02-20 02:44:00,
2013-02-19 21:50:00,18.0,13.2,30.03,WSW,238,12.0,18.0,81,0.00,,,0.14,Wunderground v.1.15,2013-02-20 02:50:00,
2013-02-19 21:56:00,17.9,13.3,30.03,WSW,249,12.0,18.0,82,0.00,,,0.14,Wunderground v.1.15,2013-02-20 02:56:00,
2013-02-19 22:03:00,17.8,13.2,30.04,WSW,245,10.0,24.0,82,0.00,,,0.14,Wunderground v.1.15,2013-02-20 03:03:00,
2013-02-19 22:08:00,17.7,13.1,30.03,WSW,257,9.0,9.0,82,0.00,,,0.14,Wunderground v.1.15,2013-02-20 03:08:00,
2013-02-19 22:14:00,17.8,13.2,30.04,SW,227,10.0,24.0,82,0.00,,,0.14,Wunderground v.1.15,2013-02-20 03:14:00,
2013-02-19 22:20:00,17.7,13.4,30.04,WSW,238,11.0,24.0,83,0.00,,,0.14,Wunderground v.1.15,2013-02-20 03:20:00,
2013-02-19 22:26:00,17.6,13.3,30.04,WSW,238,10.0,24.0,83,0.00,,,0.14,Wunderground v.1.15,2013-02-20 03:26:00,
2013-02-19 22:32:00,17.5,13.5,30.04,West,262,8.0,24.0,84,0.00,,,0.14,Wunderground v.1.15,2013-02-20 03:32:00,
2013-02-19 22:37:00,17.5,13.5,30.04,WSW,257,8.0,24.0,84,0.00,,,0.14,Wunderground v.1.15,2013-02-20 03:37:00,
2013-02-19 22:43:00,17.3,13.6,30.04,West,265,9.0,24.0,85,0.00,,,0.14,Wunderground v.1.15,2013-02-20 03:43:00,
2013-02-19 22:49:00,17.3,13.6,30.05,SW,236,8.0,24.0,85,0.00,,,0.14,Wunderground v.1.15,2013-02-20 03:49:00,
2013-02-19 22:55:00,17.1,12.8,30.05,West,271,9.0,24.0,83,0.00,,,0.14,Wunderground v.1.15,2013-02-20 03:55:00,
2013-02-19 23:01:00,17.0,12.5,30.04,West,267,12.0,24.0,82,0.00,,,0.14,Wunderground v.1.15,2013-02-20 04:01:00,
2013-02-19 23:08:00,16.7,11.9,30.04,SW,229,11.0,11.0,81,0.00,,,0.14,Wunderground v.1.15,2013-02-20 04:08:00,
2013-02-19 23:14:00,16.5,11.7,30.05,West,269,14.0,24.0,81,0.00,,,0.14,Wunderground v.1.15,2013-02-20 04:14:00,
2013-02-19 23:20:00,16.4,11.3,30.05,West,259,14.0,24.0,80,0.00,,,0.14,Wunderground v.1.15,2013-02-20 04:20:00,
2013-02-19 23:26:00,16.3,11.2,30.05,West,273,12.0,24.0,80,0.00,,,0.14,Wunderground v.1.15,2013-02-20 04:26:00,
2013-02-19 23:31:00,16.3,11.5,30.05,West,261,9.0,24.0,81,0.00,,,0.14,Wunderground v.1.15,2013-02-20 04:31:00,
2013-02-19 23:37:00,16.2,11.4,30.05,WSW,247,10.0,24.0,81,0.00,,,0.14,Wunderground v.1.15,2013-02-20 04:37:00,
2013-02-19 23:43:00,16.0,11.5,30.06,West,277,11.0,24.0,82,0.00,,,0.14,Wunderground v.1.15,2013-02-20 04:43:00,
2013-02-19 23:49:00,15.8,11.3,30.06,West,261,12.0,24.0,82,0.00,,,0.14,Wunderground v.1.15,2013-02-20 04:49:00,
2013-02-19 23:54:00,15.7,11.2,30.06,West,266,11.0,24.0,82,0.00,,,0.14,Wunderground v.1.15,2013-02-20 04:54:00,
2013-02-19 23:59:00,15.7,11.2,30.06,South,183,9.0,9.0,82,0.00,,,0.00,Wunderground v.1.15,2013-02-20 04:59:00,